TimeEDT,TemperatureF,Dew PointF,Humidity,Sea Level PressureIn,VisibilityMPH,Wind Direction,Wind SpeedMPH,Gust SpeedMPH,PrecipitationIn,Events,Conditions,WindDirDegrees,DateUTC
12:53 AM,30.0,27.0,88,30.19,10.0,Calm,Calm,-,N/A,,Clear,0,2013-10-26 04:53:00
1:53 AM,28.0,26.1,92,30.18,10.0,Calm,Calm,-,N/A,,Clear,0,2013-10-26 05:53:00
2:53 AM,27.0,25.0,92,30.17,10.0,Calm,Calm,-,N/A,,Clear,0,2013-10-26 06:53:00
3:53 AM,25.0,23.0,92,30.16,9.0,SSE,3.5,-,N/A,,Clear,160,2013-10-26 07:53:00
4:53 AM,28.9,26.1,89,30.16,10.0,SSW,4.6,-,N/A,,Clear,200,2013-10-26 08:53:00
5:53 AM,27.0,24.1,89,30.16,10.0,SSW,4.6,-,N/A,,Clear,210,2013-10-26 09:53:00
6:53 AM,27.0,24.1,89,30.16,10.0,Calm,Calm,-,N/A,,Clear,0,2013-10-26 10:53:00
7:53 AM,28.0,25.0,88,30.16,10.0,Calm,Calm,-,N/A,,Clear,0,2013-10-26 11:53:00
8:53 AM,37.9,33.1,83,30.16,10.0,South,4.6,-,N/A,,Clear,170,2013-10-26 12:53:00
9:53 AM,43.0,33.1,68,30.13,10.0,South,6.9,-,N/A,,Clear,180,2013-10-26 13:53:00
10:53 AM,50.0,28.0,43,30.10,10.0,SW,13.8,23.0,N/A,,Partly Cloudy,230,2013-10-26 14:53:00
11:53 AM,51.1,24.1,35,30.07,10.0,WSW,12.7,23.0,N/A,,Partly Cloudy,240,2013-10-26 15:53:00
12:53 PM,52.0,23.0,32,30.04,10.0,SSW,18.4,29.9,N/A,,Partly Cloudy,210,2013-10-26 16:53:00
1:53 PM,55.0,26.1,33,29.99,10.0,South,19.6,27.6,N/A,,Partly Cloudy,190,2013-10-26 17:53:00
2:53 PM,55.0,25.0,31,29.96,10.0,SSW,19.6,28.8,N/A,,Clear,200,2013-10-26 18:53:00
3:53 PM,54.0,25.0,33,29.94,10.0,SSW,21.9,32.2,N/A,,Clear,200,2013-10-26 19:53:00
4:53 PM,53.1,24.1,32,29.91,10.0,South,16.1,26.5,N/A,,Clear,190,2013-10-26 20:53:00
5:53 PM,50.0,26.1,39,29.91,10.0,SSW,16.1,23.0,N/A,,Clear,200,2013-10-26 21:53:00
6:53 PM,48.9,27.0,43,29.92,10.0,SSW,10.4,-,N/A,,Clear,200,2013-10-26 22:53:00
7:53 PM,48.0,27.0,44,29.92,10.0,SSW,9.2,-,N/A,,Overcast,210,2013-10-26 23:53:00
8:53 PM,48.9,27.0,43,29.91,10.0,SSW,8.1,-,N/A,,Overcast,210,2013-10-27 00:53:00
9:53 PM,48.0,28.0,46,29.90,10.0,South,4.6,-,N/A,,Overcast,180,2013-10-27 01:53:00
10:53 PM,48.0,28.9,48,29.89,10.0,SSE,3.5,-,N/A,,Overcast,160,2013-10-27 02:53:00
11:53 PM,48.0,30.0,50,29.87,10.0,South,5.8,-,N/A,,Overcast,170,2013-10-27 03:53:00